Skip Page Navigation
NASA JPL Caltech
NASA Logo - Jet Propulsion Laboratory + View the NASA Portal
+ Near-Earth Object (NEO) Program
Search JPL
JPL Home Earth Solar System Stars & Galaxies Technology
JPL Solar System Dynamics
BODIES ORBITS EPHEMERIDES TOOLS PHYSICAL DATA DISCOVERY FAQ SITE MAP
JPL Small-Body Database Browser
Search: [ help ]  
14823 (1984 ST5)
Classification: Main-belt Asteroid          SPK-ID: 2014823
Ephemeris | Orbit Diagram | Orbital Elements | Physical Parameters | Discovery Circumstances | Close-Approach Data ]

[ show orbit diagram ]
Orbital Elements at Epoch 2457000.5 (2014-Dec-09.0) TDB
Reference: JPL 8 (heliocentric ecliptic J2000)
 Element Value Uncertainty (1-sigma)   Units 
e .1878041603241566 5.3388e-08  
a 2.397866129369957 1.5565e-08 AU
q 1.947536894373896 1.2909e-07 AU
i 1.753201357272207 6.4637e-06 deg
node 342.4541292921184 0.00016707 deg
peri 35.78579499252207 0.00016788 deg
M 36.24942482103352 1.9585e-05 deg
tp 2456863.936560704372
(2014-Jul-25.43656070)
7.3069e-05 JED
period 1356.237744161385
3.71
1.3205e-05
3.615e-08
d
yr
n .265440186685412 2.5845e-09 deg/d
Q 2.848195364366016 1.8488e-08 AU
  Orbit Determination Parameters
   # obs. used (total)      851  
   data-arc span      10967 days (30.03 yr)  
   first obs. used      1984-09-21  
   last obs. used      2014-10-01  
   planetary ephem.      DE431  
   SB-pert. ephem.      SB431-BIG16  
   condition code      0  
   fit RMS      .5335  
   data source      ORB  
   producer      Otto Matic  
   solution date      2014-Oct-09 14:28:39  

Additional Information
 Earth MOID = .949648 AU 
 T_jup = 3.503 
[ show covariance matrix ]

Ephemeris | Orbit Diagram | Orbital Elements | Physical Parameters | Discovery Circumstances | Close-Approach Data ]

Physical Parameter Table
Parameter Symbol Value Units Sigma Reference Notes
absolute magnitude H 14.6 mag n/a PDS3 (MPO 11)  

14823 (1984 ST5)          Discovered 1984-Sep-21 by Debehogne, H. at La Silla (809)
Reference: 20000523/Numbers.arcLast Updated: 2004-04-19

[ show close-approach data ]
Alternate Designations
 1984 ST5 = 1998 HP102 = 1999 VQ27 
Ephemeris | Orbit Diagram | Orbital Elements | Physical Parameters | Discovery Circumstances | Close-Approach Data ]
ABOUT SSD CREDITS/AWARDS PRIVACY/COPYRIGHT GLOSSARY LINKS
FirstGov 2014-Oct-25 15:19 UT
(server date/time)  
NASA Home Page
Site Manager:   Donald K. Yeomans
Webmaster  Alan B. Chamberlin